TimeEDT,TemperatureF,Dew PointF,Humidity,Sea Level PressureIn,VisibilityMPH,Wind Direction,Wind SpeedMPH,Gust SpeedMPH,PrecipitationIn,Events,Conditions,WindDirDegrees,DateUTC
2:35 AM,60.8,53.6,77,29.86,10.0,West,3.5,-,N/A,,Unknown,280,2012-10-19 06:35:00
2:55 AM,60.8,51.8,72,29.86,10.0,WNW,5.8,-,N/A,,Unknown,300,2012-10-19 06:55:00
3:15 AM,59.0,50.0,72,29.85,10.0,NW,5.8,-,N/A,,Unknown,320,2012-10-19 07:15:00
3:35 AM,59.0,48.2,67,29.85,10.0,NW,4.6,-,N/A,,Unknown,320,2012-10-19 07:35:00
3:55 AM,59.0,46.4,63,29.85,10.0,NW,4.6,-,N/A,,Unknown,310,2012-10-19 07:55:00
4:15 AM,57.2,46.4,67,29.85,10.0,NW,4.6,-,N/A,,Unknown,310,2012-10-19 08:15:00
4:35 AM,57.2,44.6,63,29.85,10.0,NW,4.6,-,N/A,,Unknown,320,2012-10-19 08:35:00
4:55 AM,57.2,42.8,59,29.85,10.0,NW,3.5,-,N/A,,Unknown,310,2012-10-19 08:55:00
5:15 AM,57.2,42.8,59,29.85,10.0,NW,4.6,-,N/A,,Unknown,310,2012-10-19 09:15:00
5:35 AM,57.2,41.0,55,29.85,10.0,WNW,3.5,-,N/A,,Unknown,300,2012-10-19 09:35:00
5:55 AM,57.2,41.0,55,29.85,10.0,WNW,4.6,-,N/A,,Unknown,300,2012-10-19 09:55:00
6:15 AM,57.2,41.0,55,29.86,10.0,WNW,4.6,-,N/A,,Unknown,300,2012-10-19 10:15:00
6:35 AM,55.4,41.0,58,29.86,10.0,WNW,4.6,-,N/A,,Unknown,300,2012-10-19 10:35:00
6:55 AM,55.4,41.0,58,29.86,10.0,WNW,3.5,-,N/A,,Unknown,300,2012-10-19 10:55:00
7:15 AM,55.4,41.0,58,29.87,10.0,WNW,5.8,-,N/A,,Unknown,300,2012-10-19 11:15:00
7:35 AM,55.4,39.2,54,29.87,10.0,WNW,4.6,-,N/A,,Unknown,290,2012-10-19 11:35:00
7:55 AM,57.2,37.4,48,29.87,10.0,WNW,4.6,-,N/A,,Unknown,290,2012-10-19 11:55:00
8:15 AM,57.2,39.2,51,29.87,10.0,WNW,3.5,-,N/A,,Unknown,290,2012-10-19 12:15:00
8:35 AM,59.0,41.0,51,29.87,10.0,WNW,3.5,-,N/A,,Unknown,300,2012-10-19 12:35:00
8:55 AM,60.8,41.0,48,29.88,10.0,WNW,4.6,-,N/A,,Unknown,300,2012-10-19 12:55:00
9:15 AM,62.6,41.0,45,29.88,10.0,WNW,4.6,-,N/A,,Unknown,300,2012-10-19 13:15:00
9:35 AM,64.4,39.2,40,29.88,10.0,WNW,4.6,-,N/A,,Unknown,300,2012-10-19 13:35:00
9:55 AM,68.0,37.4,33,29.89,10.0,NW,4.6,-,N/A,,Unknown,310,2012-10-19 13:55:00
10:15 AM,69.8,35.6,28,29.89,10.0,NW,6.9,-,N/A,,Unknown,320,2012-10-19 14:15:00
10:35 AM,71.6,35.6,27,29.89,10.0,WNW,10.4,16.1,N/A,,Unknown,300,2012-10-19 14:35:00
10:55 AM,71.6,33.8,25,29.89,10.0,NW,9.2,-,N/A,,Unknown,310,2012-10-19 14:55:00
11:15 AM,73.4,33.8,23,29.89,10.0,West,8.1,-,N/A,,Unknown,270,2012-10-19 15:15:00
11:35 AM,73.4,32.0,22,29.89,10.0,West,10.4,-,N/A,,Unknown,260,2012-10-19 15:35:00
11:55 AM,73.4,32.0,22,29.89,10.0,West,10.4,17.3,N/A,,Unknown,280,2012-10-19 15:55:00
12:15 PM,75.2,30.2,19,29.89,10.0,West,9.2,25.3,N/A,,Unknown,270,2012-10-19 16:15:00
12:35 PM,75.2,28.4,18,29.89,10.0,West,10.4,17.3,N/A,,Unknown,270,2012-10-19 16:35:00
12:55 PM,77.0,30.2,18,29.88,10.0,West,12.7,20.7,N/A,,Unknown,270,2012-10-19 16:55:00
1:15 PM,77.0,30.2,18,29.87,10.0,WNW,12.7,18.4,N/A,,Unknown,290,2012-10-19 17:15:00
1:35 PM,77.0,32.0,19,29.87,10.0,WNW,12.7,17.3,N/A,,Unknown,290,2012-10-19 17:35:00
1:55 PM,77.0,32.0,19,29.85,10.0,West,8.1,18.4,N/A,,Unknown,280,2012-10-19 17:55:00
2:15 PM,77.0,32.0,19,29.84,10.0,West,12.7,21.9,N/A,,Unknown,270,2012-10-19 18:15:00
2:35 PM,78.8,32.0,18,29.84,10.0,West,15.0,19.6,N/A,,Unknown,280,2012-10-19 18:35:00
2:55 PM,78.8,32.0,18,29.82,10.0,West,13.8,20.7,N/A,,Unknown,260,2012-10-19 18:55:00
3:15 PM,78.8,32.0,18,29.82,10.0,WNW,10.4,19.6,N/A,,Unknown,290,2012-10-19 19:15:00
3:35 PM,78.8,32.0,18,29.81,10.0,WNW,11.5,17.3,N/A,,Unknown,300,2012-10-19 19:35:00
3:55 PM,78.8,32.0,18,29.81,10.0,West,8.1,23.0,N/A,,Unknown,270,2012-10-19 19:55:00
4:15 PM,78.8,32.0,18,29.81,10.0,WSW,9.2,19.6,N/A,,Unknown,250,2012-10-19 20:15:00
4:35 PM,78.8,32.0,18,29.80,10.0,West,11.5,18.4,N/A,,Unknown,280,2012-10-19 20:35:00
4:55 PM,77.0,32.0,19,29.79,10.0,WSW,9.2,16.1,N/A,,Unknown,250,2012-10-19 20:55:00
5:15 PM,78.8,32.0,18,29.79,10.0,West,10.4,18.4,N/A,,Unknown,280,2012-10-19 21:15:00
5:35 PM,77.0,32.0,19,29.79,10.0,West,9.2,16.1,N/A,,Unknown,260,2012-10-19 21:35:00
5:55 PM,77.0,33.8,21,29.79,10.0,WSW,6.9,17.3,N/A,,Unknown,250,2012-10-19 21:55:00
6:15 PM,75.2,33.8,22,29.80,10.0,West,8.1,-,N/A,,Unknown,270,2012-10-19 22:15:00
6:35 PM,73.4,33.8,23,29.80,10.0,West,6.9,-,N/A,,Unknown,260,2012-10-19 22:35:00
6:55 PM,71.6,33.8,25,29.80,10.0,WSW,3.5,-,N/A,,Unknown,240,2012-10-19 22:55:00
7:15 PM,69.8,33.8,27,29.81,10.0,WSW,3.5,-,N/A,,Unknown,240,2012-10-19 23:15:00
7:35 PM,68.0,33.8,28,29.82,10.0,WSW,3.5,-,N/A,,Unknown,240,2012-10-19 23:35:00
7:55 PM,66.2,33.8,30,29.82,10.0,WSW,4.6,-,N/A,,Unknown,240,2012-10-19 23:55:00
8:15 PM,64.4,33.8,32,29.83,10.0,WSW,4.6,-,N/A,,Unknown,240,2012-10-20 00:15:00
8:35 PM,64.4,35.6,34,29.84,10.0,WSW,4.6,-,N/A,,Unknown,240,2012-10-20 00:35:00
8:55 PM,64.4,35.6,34,29.84,10.0,SW,3.5,-,N/A,,Unknown,230,2012-10-20 00:55:00
9:15 PM,62.6,35.6,37,29.84,10.0,SW,4.6,-,N/A,,Unknown,230,2012-10-20 01:15:00
9:35 PM,62.6,35.6,37,29.85,10.0,WSW,5.8,-,N/A,,Unknown,240,2012-10-20 01:35:00
9:55 PM,62.6,35.6,37,29.85,10.0,SW,3.5,-,N/A,,Unknown,230,2012-10-20 01:55:00
10:15 PM,62.6,35.6,37,29.85,10.0,WSW,5.8,-,N/A,,Unknown,240,2012-10-20 02:15:00
10:35 PM,60.8,35.6,39,29.86,10.0,SW,4.6,-,N/A,,Unknown,230,2012-10-20 02:35:00
10:55 PM,60.8,35.6,39,29.86,10.0,SW,4.6,-,N/A,,Unknown,230,2012-10-20 02:55:00
11:15 PM,60.8,35.6,39,29.86,10.0,SW,4.6,-,N/A,,Unknown,230,2012-10-20 03:15:00
11:35 PM,60.8,35.6,39,29.87,10.0,WSW,5.8,-,N/A,,Unknown,240,2012-10-20 03:35:00
11:55 PM,60.8,37.4,42,29.88,10.0,West,4.6,-,N/A,,Unknown,260,2012-10-20 03:55:00